Dewpoint
50 50 50 49 49 49 49 49 48 48 48 49 49 49 48 49 49 48 49 50 48 50 50 49 50 50 50 50 50 50 52 45 42 36 33 33 37 57 56 58 53 55 57 44 38 34 32 33 32 31 27 23 22 19 25 26 23 22 17 13 12 4 -2 3 8 12 10 10 13 13 13 14 34 44 50 55 54 52 54 55 57 59 62 62 62 63 65 66
50 50 50 49 49 49 49 49 48 48 48 49 49 49 48 48 48 48 48 49 49 50 50 49 50 51 50 49 50 51 48 43 36 33 30 37 51 53 59 58 56 56 57 38 34 30 29 29 30 29 22 18 19 18 23 24 25 18 15 15 10 2 4 10 14 15 14 14 15 13 12 13 31 47 49 45 44 47 48 50 52 57 62 62 63 63 64 65
49 50 49 49 50 50 49 49 48 46 48 49 49 49 48 48 48 49 49 49 48 49 51 50 49 49 50 50 50 51 46 36 32 21 27 53 56 54 59 60 58 58 45 31 31 29 26 26 28 25 17 16 12 21 21 26 22 18 20 11 4 9 13 11 15 17 18 17 15 13 11 10 25 39 43 43 40 47 39 42 48 50 58 61 63 63 64 64
49 49 49 49 49 49 49 48 48 48 48 47 48 48 49 48 48 48 48 49 49 48 49 49 49 49 49 49 52 48 41 35 20 8 39 58 61 57 57 61 60 54 33 24 27 27 26 27 26 22 17 14 18 21 15 25 18 20 15 7 5 15 7 6 13 17 19 18 15 13 11 9 10 14 24 40 38 40 36 37 39 41 53 61 62 63 64 65
49 49 49 49 49 49 48 48 47 47 48 48 48 47 48 48 48 48 48 48 49 48 48 48 48 49 49 50 51 45 39 17 3 37 45 60 64 61 56 58 61 36 28 22 27 28 27 26 24 20 16 10 18 17 12 23 15 26 14 8 17 13 4 15 15 19 19 18 15 13 10 8 10 19 23 35 30 25 30 35 42 39 55 63 62 63 64 64
49 49 49 49 49 48 48 47 47 46 45 46 48 48 48 48 48 48 49 49 48 48 49 49 48 48 48 50 45 43 36 -7 16 33 52 61 64 64 58 59 60 31 25 23 24 24 24 25 22 18 13 11 17 13 10 19 21 15 16 18 20 15 10 18 18 18 18 16 14 12 11 10 10 11 29 40 31 24 34 39 45 51 60 63 62 64 66 64
49 49 49 48 48 48 48 46 47 47 46 46 46 48 48 49 48 47 48 48 48 48 49 48 48 48 49 51 43 41 28 3 8 17 59 57 61 63 60 57 54 33 26 19 21 21 22 21 19 13 9 9 13 10 12 15 20 11 10 18 15 17 17 16 17 18 17 16 14 11 11 9 9 8 29 36 13 27 37 45 55 57 63 62 62 66 65 64
49 48 48 47 47 47 47 47 47 48 48 47 48 48 47 47 48 48 49 49 48 48 49 48 48 48 50 42 35 27 13 9 7 14 58 59 59 57 58 47 38 30 24 19 20 20 20 18 14 10 6 3 11 11 17 16 17 11 9 16 13 16 16 16 15 16 16 16 13 11 9 8 9 8 11 12 11 42 45 55 56 57 60 61 63 66 65 65
48 48 47 48 47 48 47 47 48 48 49 49 49 48 47 47 48 47 47 49 47 48 49 48 47 48 50 44 32 15 7 9 23 42 45 46 49 52 47 42 35 24 23 20 20 18 19 16 11 9 3 3 11 7 23 13 13 13 10 11 13 15 16 15 15 16 15 13 11 9 8 8 8 8 7 7 12 50 53 54 55 57 57 60 64 66 64 65
48 48 48 47 47 47 47 48 49 49 48 48 48 47 47 47 48 48 48 47 48 47 49 48 47 48 44 40 30 11 10 22 38 45 46 47 47 47 42 34 30 24 22 20 19 17 15 12 9 9 14 7 16 6 20 11 13 16 12 14 15 14 15 15 15 15 14 12 11 9 7 6 8 8 4 8 28 52 52 50 54 55 54 58 64 66 65 64
48 47 47 47 47 47 47 48 48 48 49 47 47 48 47 46 47 47 46 47 47 48 47 48 47 47 41 39 29 7 16 29 41 44 47 46 46 42 38 35 27 24 21 21 18 18 15 12 10 16 14 5 12 10 17 14 14 17 16 14 14 14 16 15 15 15 13 10 9 8 6 6 7 7 18 20 51 53 51 48 51 50 50 57 66 65 65 64
48 47 47 47 47 48 48 48 47 47 48 49 47 48 48 47 47 47 47 47 47 47 47 47 47 46 44 38 28 8 37 41 39 35 43 44 41 37 38 37 27 24 23 21 19 18 17 18 17 14 0 15 7 19 15 14 16 16 16 12 12 14 12 12 11 12 14 9 7 7 5 5 5 4 17 51 51 56 54 48 50 49 48 58 65 64 64 63
47 47 47 47 47 47 47 47 47 47 48 49 48 47 47 47 47 47 46 46 46 47 46 46 45 41 41 35 30 24 19 26 27 30 27 34 40 38 37 36 29 27 25 22 19 21 23 20 16 11 17 15 13 9 15 17 14 14 14 9 11 10 5 8 9 11 10 7 7 6 6 5 5 14 13 27 54 55 49 38 43 47 50 59 62 59 62 64
47 47 47 47 46 47 46 47 47 48 47 47 47 47 47 47 47 46 46 46 46 46 46 45 43 43 40 29 21 22 24 25 21 18 14 13 20 23 34 35 34 34 32 28 26 27 25 24 19 12 24 21 16 18 18 18 15 6 8 9 10 4 1 6 9 10 8 8 7 7 11 5 16 26 25 32 48 52 46 47 51 50 54 57 57 60 56 63
46 46 46 46 46 47 47 48 47 47 47 47 47 47 47 46 46 46 46 47 47 46 47 47 47 42 39 30 32 30 47 35 27 18 13 13 12 12 27 35 32 32 31 31 29 28 25 24 22 21 18 25 22 13 12 13 14 8 8 5 4 7 1 7 8 8 5 5 7 6 11 12 28 33 34 37 48 53 50 46 49 52 56 59 59 57 56 60
46 45 46 45 46 47 48 48 48 48 47 47 46 47 46 45 45 46 46 46 46 45 42 44 42 41 36 21 16 42 37 24 14 12 13 12 10 12 30 34 33 34 31 29 29 29 25 25 21 18 18 24 20 13 9 9 9 8 7 11 6 5 4 5 8 7 8 5 7 6 3 7 29 38 41 39 43 49 49 47 50 51 54 59 59 59 60 60
46 45 45 46 47 48 48 48 48 47 46 46 47 46 45 45 45 46 46 46 44 43 44 39 40 43 30 21 22 10 13 23 26 20 18 13 8 16 32 35 33 34 34 32 29 27 26 23 26 26 23 20 18 14 14 11 10 9 5 11 8 1 4 2 6 6 6 6 5 6 7 30 36 40 42 44 40 40 43 44 49 51 54 57 58 57 58 60
46 45 46 46 47 47 47 47 46 46 46 46 46 45 43 46 47 48 47 45 41 42 42 43 38 40 33 32 15 14 15 19 20 18 24 20 9 21 29 31 34 34 31 29 28 22 24 20 24 19 22 23 17 16 13 9 14 12 10 16 11 2 5 2 4 5 5 5 5 6 25 34 37 40 44 46 46 46 47 47 49 50 53 56 55 55 58 60
46 46 46 47 47 47 47 46 46 46 46 47 47 48 46 46 44 40 40 40 40 39 33 37 36 17 5 19 17 14 17 23 24 24 24 23 13 17 27 33 32 30 26 23 20 22 20 20 22 17 15 17 20 16 11 8 8 9 7 9 8 8 5 2 4 7 6 5 3 9 19 33 40 41 45 47 48 48 49 50 49 51 53 55 55 55 58 60
46 46 47 47 46 47 46 46 46 46 47 44 41 41 43 39 41 36 38 39 32 22 14 25 30 9 11 15 23 25 23 22 20 21 24 23 20 20 28 30 30 27 23 19 20 22 18 17 14 14 16 15 18 15 12 13 10 9 6 4 4 -0 3 5 7 10 9 7 22 22 32 38 42 44 46 48 49 49 49 51 50 51 51 52 53 55 57 59
46 46 47 47 46 47 46 45 46 46 46 42 39 36 31 26 25 23 34 35 34 28 22 24 27 16 8 26 27 23 18 18 17 25 24 25 20 20 24 29 28 26 22 16 20 22 17 16 13 11 16 16 16 19 23 18 11 6 4 2 2 -1 2 6 7 10 13 25 32 34 35 41 44 45 46 48 48 48 50 50 51 51 51 52 53 57 60 61
46 46 46 46 46 46 45 45 46 47 46 42 40 33 31 29 34 36 35 27 32 31 28 25 26 25 24 21 24 28 22 16 16 19 27 23 19 18 25 27 26 23 22 18 21 23 19 13 11 7 11 16 19 21 22 19 15 8 6 4 3 1 4 8 10 13 12 21 30 30 33 41 43 44 46 47 48 51 52 53 53 53 54 55 57 59 59 59
46 47 46 46 46 46 45 45 46 45 44 40 35 33 32 34 35 36 38 34 27 29 29 23 19 20 18 19 18 24 15 11 10 16 27 22 18 17 25 23 24 21 19 18 20 22 18 11 11 9 14 22 21 19 22 19 18 12 8 7 5 0 5 8 16 15 20 23 30 31 33 41 44 45 46 46 46 50 51 53 54 54 54 55 56 56 56 57
46 46 47 46 46 45 45 46 48 45 41 36 33 33 34 34 36 38 38 28 19 22 27 27 23 19 15 11 17 20 8 7 10 16 27 22 17 19 23 21 21 19 18 18 17 16 12 12 10 18 21 20 22 19 20 19 15 16 10 5 3 2 2 6 14 17 23 30 31 30 33 37 41 41 42 45 47 47 49 51 52 53 53 53 54 55 55 55
46 46 46 46 46 45 44 45 41 37 36 36 34 35 35 37 40 38 38 32 27 22 26 24 26 24 21 20 24 14 8 4 10 12 25 22 18 20 22 22 20 18 17 16 15 14 13 13 17 19 15 11 16 17 17 19 14 14 14 7 4 6 4 16 21 20 23 28 29 23 18 28 39 40 41 43 45 48 49 50 50 51 51 51 51 52 53 54
46 46 46 45 46 45 45 38 37 36 35 32 33 36 38 39 37 41 37 26 16 22 26 20 27 19 27 26 21 12 14 5 5 11 25 24 22 21 24 23 20 17 16 15 13 15 13 17 20 16 13 14 14 13 14 15 12 16 14 10 7 5 7 13 15 15 21 20 25 28 17 24 38 38 41 43 45 47 49 49 49 49 49 50 50 51 51 52
46 46 46 46 45 45 40 34 40 39 33 32 35 40 39 37 41 41 34 22 16 22 19 24 18 16 21 24 18 15 9 4 7 7 21 25 20 23 23 23 24 21 17 21 17 13 13 20 17 14 16 14 14 14 14 13 11 10 13 13 10 7 6 10 9 12 14 21 25 29 21 25 33 37 42 42 44 45 48 48 48 48 48 48 49 50 50 50
46 46 45 46 45 44 39 38 37 34 32 39 37 39 38 39 41 42 35 16 12 18 18 23 19 25 18 22 15 11 3 8 6 6 16 24 22 22 24 22 23 20 22 18 14 15 24 21 17 17 17 14 11 11 13 13 10 10 14 12 11 9 7 7 6 9 12 20 22 22 18 21 28 40 43 41 41 45 47 47 47 47 47 47 48 48 48 49
45 46 46 46 45 44 44 41 37 32 33 36 37 38 37 41 41 36 22 11 20 15 23 21 26 23 22 22 15 8 10 12 1 11 15 23 22 23 22 22 24 23 22 19 13 21 20 19 16 18 17 14 12 10 13 15 12 13 14 12 11 11 10 7 8 6 17 16 15 19 18 15 35 39 38 40 40 43 46 46 47 47 47 47 47 48 48 47
46 45 46 46 45 44 43 42 38 35 36 36 36 38 40 41 39 28 20 12 21 12 16 22 19 19 24 20 16 6 5 11 11 14 17 21 21 23 21 23 22 20 21 20 14 21 18 24 21 16 16 14 13 12 14 15 12 14 13 13 13 12 13 13 13 10 18 12 13 15 16 14 23 35 36 37 41 44 47 46 47 46 46 46 47 46 46 47
45 45 45 45 41 37 38 36 33 34 36 38 39 39 40 39 29 16 15 13 23 18 19 20 16 22 21 17 15 8 1 10 19 14 18 20 20 22 21 20 20 19 21 19 16 15 21 22 20 18 18 15 14 17 15 14 14 13 12 10 11 14 15 17 17 16 13 12 12 11 16 22 17 34 40 44 45 46 46 46 46 45 45 45 46 46 46 46
45 45 45 45 41 39 36 33 38 39 40 41 40 40 38 28 30 19 16 23 19 22 14 15 20 21 20 15 10 7 4 8 18 16 17 17 21 18 19 20 21 17 17 17 14 19 20 18 18 19 24 18 19 17 16 15 15 12 11 11 13 12 16 10 9 10 8 10 20 18 14 19 15 37 42 45 46 46 47 46 45 45 44 45 45 46 46 46
45 45 45 42 42 41 39 37 41 42 42 40 38 37 34 25 20 19 16 13 20 32 25 27 18 20 19 13 9 6 7 12 18 15 16 15 16 17 18 17 18 19 17 22 17 20 18 17 17 18 20 21 17 12 15 15 15 13 11 12 10 8 9 11 7 10 8 21 20 22 18 18 40 41 46 46 46 46 45 45 45 45 45 45 45 45 45 46
45 45 44 41 41 39 38 41 40 40 40 40 37 33 30 20 17 22 18 19 25 28 27 27 25 21 20 13 8 5 7 10 17 15 14 16 16 19 16 16 17 17 21 22 13 17 14 14 16 17 16 19 16 12 14 15 14 12 10 8 12 10 9 11 5 8 10 15 23 28 23 34 31 42 47 46 46 45 45 44 45 45 44 45 44 44 45 45
46 46 44 43 42 40 41 39 41 42 41 36 35 29 24 19 18 16 17 21 32 33 24 29 25 19 21 18 9 2 4 16 17 15 13 14 17 17 18 15 19 17 15 18 22 20 11 17 16 16 15 18 17 15 14 11 11 11 9 7 9 11 12 7 16 9 12 21 20 29 29 39 38 48 47 46 45 45 44 44 44 43 43 44 44 44 44 45
44 41 42 39 38 38 39 38 41 41 38 34 30 24 25 22 17 24 26 29 32 29 29 25 26 18 17 15 7 2 7 17 18 16 13 12 14 14 16 18 18 17 20 19 24 18 13 17 14 15 15 16 15 15 14 13 12 13 8 8 6 8 6 18 23 29 25 19 20 34 36 41 47 48 46 46 44 43 43 43 43 43 43 44 43 43 44 45
40 40 37 37 37 39 39 39 38 39 36 34 31 24 28 24 21 24 31 30 34 35 29 23 20 13 15 15 13 3 10 16 19 15 14 13 14 13 16 16 18 16 15 18 22 18 15 13 13 15 15 14 14 14 17 15 8 10 11 9 13 14 14 17 10 16 15 10 27 32 34 37 40 36 45 44 43 43 42 42 42 43 43 42 43 43 44 45
41 39 39 38 39 41 42 40 40 37 34 33 27 28 28 24 22 23 31 31 35 34 31 28 21 17 14 12 6 2 10 14 18 16 15 12 14 13 14 14 16 17 18 17 20 18 16 12 14 14 13 14 16 16 16 16 16 11 7 1 8 12 16 18 13 13 12 13 26 28 31 34 32 39 42 43 42 42 42 42 42 42 42 42 42 43 43 44
42 41 36 43 44 44 43 41 39 35 32 28 26 24 24 24 22 24 29 32 32 33 29 27 25 19 13 11 7 4 7 14 16 17 14 14 15 16 13 14 15 15 16 16 18 24 23 14 14 13 11 14 15 15 18 16 17 17 7 9 5 14 12 12 15 14 13 11 23 23 28 28 32 42 43 43 43 43 42 42 42 41 41 42 42 42 43 43
41 38 37 44 44 45 42 41 37 31 27 22 23 24 26 24 20 30 27 28 33 33 29 30 26 26 19 12 4 8 10 13 16 19 14 18 17 17 16 14 15 16 17 17 15 18 18 27 14 15 15 15 14 16 15 15 16 15 13 12 11 22 15 11 19 9 10 12 16 24 23 26 39 43 44 44 45 43 42 42 42 41 41 41 42 42 43 42
41 40 41 44 43 43 40 38 29 22 25 27 24 21 23 22 22 24 28 31 31 33 31 30 30 29 28 25 7 8 12 11 14 15 14 17 20 19 14 14 15 17 16 16 15 22 18 17 16 23 18 15 13 14 31 13 14 13 14 12 7 13 16 12 15 15 16 12 16 22 22 32 44 45 45 44 44 42 42 42 41 41 41 41 42 42 42 42
40 32 38 44 44 42 38 28 22 23 25 25 23 23 24 27 24 21 19 29 32 33 33 32 30 28 27 24 21 8 9 8 13 13 15 17 20 18 17 18 15 15 16 20 19 24 29 21 21 17 18 15 32 31 34 30 26 15 11 8 3 17 16 12 12 14 16 15 16 19 16 33 43 43 44 43 42 42 42 41 41 40 41 41 42 42 42 42
40 38 44 43 42 39 39 26 19 24 26 24 23 23 21 23 23 22 20 28 29 31 32 30 29 27 24 23 21 13 10 13 11 16 17 17 24 27 21 24 16 14 14 17 13 28 41 27 22 17 25 30 31 31 32 30 26 20 18 13 9 12 13 16 12 22 13 23 16 16 17 35 41 42 42 42 41 41 41 41 40 40 40 41 41 41 41 41
39 39 38 40 43 43 39 20 18 23 25 24 25 25 21 22 22 19 20 28 30 29 29 27 24 22 24 21 20 20 13 26 21 18 21 18 33 37 31 28 22 16 13 20 22 32 25 31 24 23 22 24 26 26 24 25 22 18 21 33 29 28 23 24 21 22 14 20 12 13 10 33 38 41 40 40 40 40 40 40 40 40 40 41 40 40 40 41
40 40 37 37 42 42 36 30 21 22 24 28 27 23 22 19 18 23 25 28 30 30 31 29 27 26 25 23 20 21 18 20 30 29 27 26 38 36 36 33 20 18 13 24 31 26 22 35 30 19 19 19 20 18 20 23 23 35 34 31 32 21 25 22 16 17 14 25 19 15 26 38 40 40 40 40 40 38 38 39 39 40 40 40 40 40 40 40
36 26 33 36 40 40 38 41 39 31 26 29 27 23 23 21 24 30 30 29 28 29 30 29 27 27 26 26 27 24 18 22 27 33 27 32 35 37 37 35 30 22 40 45 37 34 38 40 37 38 19 19 21 28 37 26 31 22 34 30 34 35 33 35 22 17 12 29 20 27 35 37 36 38 39 39 39 37 37 38 38 38 39 39 38 38 38 38
40 28 27 25 36 36 37 38 37 33 27 28 21 26 21 24 30 33 33 34 32 31 32 31 28 30 30 28 31 25 19 21 25 25 26 29 35 37 36 33 38 41 44 40 39 34 37 33 38 39 36 34 35 35 38 31 33 33 33 34 33 35 38 35 19 18 23 23 12 38 39 38 37 38 38 39 39 37 37 37 37 37 38 38 37 36 37 36
31 32 34 36 28 23 29 30 35 34 35 27 31 33 33 32 32 32 34 33 33 33 31 32 30 28 29 30 31 28 25 26 27 32 30 33 35 38 35 36 35 42 36 32 39 33 33 32 37 38 36 36 37 36 34 34 34 36 36 36 36 37 36 39 40 38 34 17 18 39 38 38 37 38 38 38 38 37 37 37 37 37 36 35 35 34 34 35
41 35 39 40 34 35 32 38 36 38 33 32 36 34 35 34 34 35 34 32 31 32 33 32 34 30 29 31 29 30 26 29 30 36 36 36 37 36 35 37 35 35 32 36 38 42 37 35 36 36 35 36 35 34 35 33 34 34 35 36 38 37 38 38 38 38 39 39 40 39 38 38 37 37 37 38 38 37 37 37 36 35 34 34 33 33 33 34
39 36 38 41 40 37 37 38 38 34 35 36 30 32 32 33 33 30 32 32 32 33 34 35 35 30 30 30 32 29 36 30 35 35 39 39 40 37 35 34 34 33 30 36 36 41 38 33 36 36 34 34 36 36 34 34 35 35 34 35 36 37 38 38 38 38 38 38 39 38 37 34 38 37 36 37 37 36 36 35 35 35 34 34 33 33 33 33
43 44 44 41 35 35 37 39 37 38 34 31 34 34 35 33 33 28 27 29 33 34 35 36 33 31 31 28 30 32 35 40 38 40 39 38 34 37 35 37 32 37 38 38 39 41 38 34 36 36 31 33 34 36 37 37 36 35 35 35 36 37 36 37 36 38 39 37 36 36 34 33 35 36 36 36 36 36 35 35 34 33 34 34 33 34 34 34
45 45 46 44 35 38 37 37 38 33 27 31 32 34 35 33 32 29 29 31 37 38 39 38 39 34 35 35 34 35 37 37 37 38 37 35 35 34 34 34 33 35 36 39 41 34 36 35 33 33 30 31 34 34 35 34 32 30 32 35 36 36 36 36 36 37 39 38 34 32 33 35 36 35 34 35 35 34 34 34 33 33 34 33 33 33 33 34